Погода в Аносово

Россия / Иркутская область     54°39′14″N   103°14′43″E
темп.,
°C
ветер,
м/с
пор.,
м/с
влажн.,
%
обл.,
%
осадки,
мм/ч
давл.,
гПа
погр.,
м
8 марта, пн
пн823:00−7ююз2297100 0.1 101437
02:00−7юз2595100 0.1 1017136
05:00−8з31189100 0.3 1019634
08:00−13зсз3119494 0.3 1025413
11:00−9зсз498695 0.0 1026772
14:00−7зсз357586 0.0 10271013
17:00−6з127751 0.0 1026776
20:00−12ююв228925 0.0 102621
9 марта, вт
вт923:00−14юв239332 0.0 102337
02:00−12юв359060 0.0 1020123
05:00−14ююв238884 0.0 101742
08:00−13ююв239173 0.0 101767
11:00−7ююз2588100 0.0 1017285
14:00−1юз3692100 0.3 1016534
17:00+1зюз498998 0.3 1016999
20:00−5зсз3138598 1.7 1022999
10 марта, ср
ср1023:00−10зсз2288100 0.0 102733
02:00−15ююз129172 0.0 102920
05:00−16ююз22940 0.0 103021
08:00−17ююв22942 0.0 103024
11:00−9ююв368657 0.0 1027324
14:00−4ю498042 0.0 1023676
17:00−3ю488775 0.0 1020491
20:00−8ю229338 0.0 102122
11 марта, чт
чт1123:00−9ю229420 0.0 102221
02:00−10ююв229610 0.0 102121
05:00−11ююв229841 0.0 102121
08:00−11юв229758 0.0 102122
11:00−4ююв379191 0.0 1017312
14:00+1ю5168595 0.0 1013587
17:000ююз4138457 0.0 1011520
20:00−4ю339378 0.0 101361
12 марта, пт
пт1223:00−6ю229392 0.0 101522
02:00−6ю019396 0.0 101521
05:00−6сз1290100 0.0 101721
08:00−4с1798100 0.6 1020380
11:00−4ссз3693100 1.6 1022636
14:00−2зюз1279100 1.7 1022773
17:00−2ю248289 0.0 1019603
20:00−7ююв359445 0.0 1018110